TimeEDT,TemperatureF,Dew PointF,Humidity,Sea Level PressureIn,VisibilityMPH,Wind Direction,Wind SpeedMPH,Gust SpeedMPH,PrecipitationIn,Events,Conditions,WindDirDegrees,DateUTC
12:53 AM,71.1,66.9,87,29.86,10.0,Calm,Calm,-,N/A,,Clear,0,2013-09-02 04:53:00
1:53 AM,70.0,66.9,90,29.85,10.0,Calm,Calm,-,N/A,,Clear,0,2013-09-02 05:53:00
2:53 AM,69.1,66.9,93,29.85,10.0,Calm,Calm,-,N/A,,Clear,0,2013-09-02 06:53:00
3:53 AM,70.0,66.9,90,29.86,10.0,Calm,Calm,-,N/A,,Overcast,0,2013-09-02 07:53:00
4:49 AM,69.8,66.2,88,29.90,10.0,Calm,Calm,-,N/A,,Mostly Cloudy,0,2013-09-02 08:49:00
4:53 AM,70.0,66.9,90,29.85,10.0,Variable,3.5,-,N/A,,Mostly Cloudy,0,2013-09-02 08:53:00
5:53 AM,69.1,66.9,93,29.85,9.0,Calm,Calm,-,N/A,,Mostly Cloudy,0,2013-09-02 09:53:00
6:20 AM,69.8,66.2,88,29.89,10.0,Calm,Calm,-,N/A,,Scattered Clouds,0,2013-09-02 10:20:00
6:53 AM,68.0,66.0,93,29.85,9.0,Variable,3.5,-,N/A,,Clear,0,2013-09-02 10:53:00
7:53 AM,69.1,66.9,93,29.88,9.0,Calm,Calm,-,N/A,,Partly Cloudy,0,2013-09-02 11:53:00
8:10 AM,69.8,66.2,88,29.92,9.0,Calm,Calm,-,N/A,,Mostly Cloudy,0,2013-09-02 12:10:00
8:51 AM,71.6,68.0,88,29.93,10.0,Calm,Calm,-,N/A,,Partly Cloudy,0,2013-09-02 12:51:00
8:53 AM,71.1,68.0,90,29.88,10.0,Calm,Calm,-,N/A,,Partly Cloudy,0,2013-09-02 12:53:00
9:21 AM,73.4,69.8,88,29.93,10.0,Calm,Calm,-,N/A,,Scattered Clouds,0,2013-09-02 13:21:00
9:39 AM,71.6,69.8,94,29.94,10.0,Calm,Calm,-,N/A,,Overcast,0,2013-09-02 13:39:00
9:53 AM,73.0,69.1,87,29.91,10.0,Calm,Calm,-,N/A,,Overcast,0,2013-09-02 13:53:00
10:18 AM,73.4,69.8,88,29.95,10.0,Calm,Calm,-,N/A,,Overcast,0,2013-09-02 14:18:00
10:25 AM,73.4,69.8,88,29.95,10.0,Calm,Calm,-,N/A,,Mostly Cloudy,0,2013-09-02 14:25:00
10:53 AM,77.0,70.0,79,29.91,10.0,Calm,Calm,-,N/A,,Overcast,0,2013-09-02 14:53:00
11:15 AM,75.2,69.8,83,29.96,10.0,West,4.6,-,N/A,,Overcast,260,2013-09-02 15:15:00
11:30 AM,78.8,69.8,74,29.96,10.0,Calm,Calm,-,N/A,,Overcast,0,2013-09-02 15:30:00
11:39 AM,78.8,71.6,78,29.96,10.0,Calm,Calm,-,N/A,,Overcast,0,2013-09-02 15:39:00
11:50 AM,77.0,69.8,78,29.96,10.0,Variable,3.5,-,N/A,,Overcast,0,2013-09-02 15:50:00
11:53 AM,77.0,70.0,79,29.92,10.0,Calm,Calm,-,N/A,,Overcast,0,2013-09-02 15:53:00
12:53 PM,81.0,71.1,72,29.90,10.0,Variable,3.5,-,N/A,,Mostly Cloudy,0,2013-09-02 16:53:00
1:45 PM,80.6,71.6,74,29.94,10.0,Calm,Calm,-,N/A,,Mostly Cloudy,0,2013-09-02 17:45:00
1:53 PM,82.9,71.1,67,29.89,10.0,Variable,3.5,-,N/A,,Mostly Cloudy,0,2013-09-02 17:53:00
2:53 PM,81.0,71.1,72,29.87,10.0,Calm,Calm,-,N/A,,Overcast,0,2013-09-02 18:53:00
3:19 PM,82.4,71.6,70,29.91,10.0,Calm,Calm,-,N/A,Thunderstorm,Scattered Clouds,0,2013-09-02 19:19:00
3:31 PM,80.6,71.6,74,29.90,10.0,Calm,Calm,-,N/A,,Mostly Cloudy,0,2013-09-02 19:31:00
3:45 PM,82.4,71.6,70,29.89,10.0,Calm,Calm,-,N/A,,Mostly Cloudy,0,2013-09-02 19:45:00
3:53 PM,82.0,71.1,69,29.84,10.0,Calm,Calm,-,N/A,,Mostly Cloudy,0,2013-09-02 19:53:00
4:53 PM,84.0,70.0,63,29.83,10.0,Calm,Calm,-,N/A,,Partly Cloudy,0,2013-09-02 20:53:00
5:53 PM,82.0,70.0,67,29.83,10.0,Calm,Calm,-,N/A,,Scattered Clouds,0,2013-09-02 21:53:00
6:53 PM,80.1,70.0,71,29.82,10.0,Variable,3.5,-,N/A,,Clear,0,2013-09-02 22:53:00
7:53 PM,77.0,70.0,79,29.84,10.0,Calm,Calm,-,N/A,,Clear,0,2013-09-02 23:53:00
8:53 PM,77.0,70.0,79,29.85,10.0,Calm,Calm,-,N/A,,Scattered Clouds,0,2013-09-03 00:53:00
9:53 PM,73.9,69.1,85,29.84,9.0,Calm,Calm,-,N/A,,Partly Cloudy,0,2013-09-03 01:53:00
10:53 PM,73.0,69.1,87,29.87,9.0,Calm,Calm,-,N/A,,Scattered Clouds,0,2013-09-03 02:53:00
11:53 PM,73.0,69.1,87,29.87,10.0,Calm,Calm,-,N/A,,Clear,0,2013-09-03 03:53:00